Terminal Aerodrome Forecast
Issued by NWS Chicago, IL

Home | Current Version | Previous Version | Text Only | Print | Product List | Glossary On
Versions: 1 2 3 4 5 6 7 8 9 10 11 12 13 14 15 16 17 18
556
FTUS43 KLOT 260907 AAA
TAFRFD
TAF AMD
KRFD 260907Z 2609/2706 VRB05KT P6SM SCT090 BKN200
     FM261500 24009KT P6SM SCT060 BKN120
     FM262200 30009KT P6SM BKN060
     FM270100 32010KT P6SM BKN050=

USA.gov is the U.S. government's official web portal to all federal, state and local government web resources and services.